sat.trackr.live / text

‹ back to catalog

KANOPUS-V-IK

NORAD 42825 · 2017-042A

PAYLOAD ACTIVE UNKNOWN

§ Identity

Operator
Country
CIS
Launch date
2017-07-14
Launch site
TYMSC
Launch vehicle
Mass (kg)
RCS (m²)

External: N2YO · Heavens-Above · Gunter

§ Orbital elements

Epoch: 2026-05-25T05:29:34.861344Z

Period
94.56 min
Inclination
97.3597°
Eccentricity
0.0001951
Mean motion
15.22858139 rev/d
Perigee alt
495.9 km
Apogee alt
498.6 km
Semi-major
6,875.4 km
B*
9.2267e-5
RAAN
51.2181°
Arg perigee
85.0644°
Mean anomaly
275.0815°
Rev number
49,187

§ Raw data

KANOPUS-V-IK1 42825U 17042A   26145.22887571  .00002091  00000+0  92267-4 0  99942 42825  97.3597  51.2181 0001951  85.0644 275.0815 15.22858139491875

JSON: /api/v1/satellites/42825 · /tle

For live sub-satellite position, see the globe view (requires WebGL).

§ Visibility from observer

Set your observer location to see the next 7 days of passes ≥ 10°. The values pass through the URL so the page stays shareable.

No JS? Fill the form by hand. The geolocation button needs JavaScript.